Regional Weather Roundup
Issued by NWS

Home | Current Version | Previous Version | Graphics & Text | Print | Product List | Glossary On
Versions: 1 2 3 4 5 6 7 8 9 10 11 12 13 14 15 16 17 18 19 20 21 22 23 24 25 26 27 28 29 30 31 32 33 34 35 36 37 38 39 40 41 42 43 44 45 46 47 48 49 50
407
ASUS43 KOAX 271502
RWRNE

WEATHER ROUNDUP FOR NEBRASKA
NATIONAL WEATHER SERVICE OMAHA NE
1000 AM CDT TUE JUN 27 2017

NOTES: SATELLITE DATA IS BEING USED TO AUGMENT CLOUD COVER ABOVE
       12000 FEET.
       "FAIR" INDICATES FEW OR NO CLOUDS BELOW 12,000 FEET WITH NO
       SIGNIFICANT WEATHER AND/OR OBSTRUCTIONS TO VISIBILITY.

  * THESE STATIONS DO NOT REPORT WEATHER SUCH AS RAIN...SNOW OR FOG.

NEZ001>004-019>022-054>056-271600-
NEBRASKA PANHANDLE

CITY           SKY/WX    TMP DP  RH WIND       PRES   REMARKS
SCOTTSBLUFF    SUNNY     73  57  57 S14       29.86F
ALLIANCE       MOSUNNY   69  56  62 S22       29.88F
CHADRON        SUNNY     69  56  62 S20G26    29.81F
GORDON         PTSUNNY   69  58  67 S20G28    29.87S
KIMBALL        SUNNY     69  58  70 S13       29.95F
SIDNEY         SUNNY     69  58  67 S14       29.94F
$$

NEZ057>060-069>072-079>082-271600-
SOUTHWEST NEBRASKA

CITY           SKY/WX    TMP DP  RH WIND       PRES   REMARKS
NORTH PLATTE   CLOUDY    65  59  81 S16G23    29.96F
IMPERIAL       CLOUDY    64  58  80 S16       29.95F
LEXINGTON      MOSUNNY   70  58  67 SE17G24   29.98F
MCCOOK         CLOUDY    63  61  93 S10       29.97F
OGALLALA       CLOUDY    68  59  72 S15G21    29.94F
$$

NEZ005>010-023>029-035>040-094-271600-
NORTH CENTRAL NEBRASKA

CITY           SKY/WX    TMP DP  RH WIND       PRES   REMARKS
VALENTINE      MOSUNNY   72  54  53 S22G33    29.90F
AINSWORTH      SUNNY     69  56  62 S24G32    29.92F
BROKEN BOW     SUNNY     68  56  65 S22G28    29.98F
O`NEILL        SUNNY     68  53  59 S21       29.99F
ORD            SUNNY     68  50  52 SE18G28   29.97F
THEDFORD       SUNNY     70  57  64 S22G30    29.95F
$$

NEZ041-046>049-061>064-073>077-083>087-271600-
SOUTH CENTRAL NEBRASKA

CITY           SKY/WX    TMP DP  RH WIND       PRES   REMARKS
GRAND ISLAND   SUNNY     68  57  68 SE18G24   30.02F
AURORA         SUNNY     68  58  69 SE15G22   30.02F
HASTINGS       MOSUNNY   68  56  65 SE16G23   30.03F
HEBRON         SUNNY     67  65  94 SE13      30.03F
HOLDREGE       SUNNY     68  57  67 SE18G26   29.99F
KEARNEY *      SUNNY     68  55  64 SE18      30.00F
YORK           SUNNY     66  57  72 SE16      30.04F
$$

NEZ011>018-030>034-042>045-271600-
NORTHEAST NEBRASKA

CITY           SKY/WX    TMP DP  RH WIND       PRES   REMARKS
NORFOLK        MOSUNNY   68  53  58 SE20      30.03F
ALBION         SUNNY     69  55  59 SE13G23   30.02F
BLAIR          SUNNY     68  58  69 SE14      30.08F
FREMONT        MOSUNNY   69  59  70 SE10      30.07F
TEKAMAH        SUNNY     71  52  50 SE13      30.07F
WAYNE          SUNNY     68  55  64 S16G23    30.04F
$$

NEZ050>053-065>068-078-088>093-271600-
SOUTHEAST NEBRASKA

CITY           SKY/WX    TMP DP  RH WIND       PRES   REMARKS
LINCOLN        SUNNY     70  57  63 SE12      30.07F
OMAHA EPPLEY   MOSUNNY   69  57  65 SE10      30.09F
BEATRICE       SUNNY     68  59  74 SE12      30.06F
FALLS CITY     SUNNY     69  58  67 SE14G20   30.08F
NEBRASKA CITY  SUNNY     67  62  84 SE9       30.09F
PLATTSMOUTH    SUNNY     68  58  71 SE7       30.08F
$$

NEZ044-045-051>053-067-271600-
OMAHA AREA

CITY           SKY/WX    TMP DP  RH WIND       PRES   REMARKS
OMAHA EPPLEY   MOSUNNY   69  57  65 SE10      30.09F
BLAIR          SUNNY     68  58  69 SE14      30.08F
FREMONT        MOSUNNY   69  59  70 SE10      30.07F
MILLARD        SUNNY     70  60  72 SE9G16    30.08F
OFFUTT AFB     SUNNY     68  58  71 SE9       30.07F
PLATTSMOUTH    SUNNY     68  58  71 SE7       30.08F
WAHOO          CLOUDY    69  55  61 SE15G21   30.07F
$$




USA.gov is the U.S. government's official web portal to all federal, state and local government web resources and services.